Location: *
(46.3500°N, 10.9000°E)
Time: 22:22:01
(UTC+00:00)

Explorer 7 - Pass Details

Date: 21 April 2021
Orbit: 484 x 677 km, 50.3° (Epoch: 05 May)

Event Time Altitude Azimuth Distance (km) Brightness Sun altitude
Rises 22:19:38 0° 287° (WNW) 2,742 10.8 -30.2°
Reaches altitude 10° 22:21:51 10° 292° (WNW) 1,878 9.9 -30.3°
Enters shadow 22:23:30 23° 300° (WNW) 1,275 9.0 -30.3°
Maximum altitude 22:26:05 56° 11° (N) 714 - -30.4°
Drops below altitude 10° 22:30:36 10° 90° (E) 1,997 - -30.6°
Sets 22:33:02 0° 95° (E) 2,934 - -30.7°
